TimeCDT,TemperatureF,Dew PointF,Humidity,Sea Level PressureIn,VisibilityMPH,Wind Direction,Wind SpeedMPH,Gust SpeedMPH,PrecipitationIn,Events,Conditions,WindDirDegrees,DateUTC
12:13 AM,60.8,50.0,68,29.47,10.0,WSW,13.8,-,N/A,,Overcast,240,2013-10-01 05:13:00
12:33 AM,60.8,51.8,72,29.48,10.0,NW,15.0,21.9,N/A,Rain,Light Rain,310,2013-10-01 05:33:00
12:53 AM,57.2,53.6,88,29.48,10.0,NW,11.5,-,N/A,Rain,Light Rain,320,2013-10-01 05:53:00
1:13 AM,57.2,53.6,88,29.50,10.0,WNW,6.9,-,N/A,,Overcast,300,2013-10-01 06:13:00
1:33 AM,55.4,53.6,94,29.50,10.0,WNW,12.7,-,N/A,,Scattered Clouds,300,2013-10-01 06:33:00
1:53 AM,55.4,53.6,94,29.50,10.0,WNW,4.6,-,N/A,,Clear,290,2013-10-01 06:53:00
2:13 AM,53.6,51.8,94,29.51,10.0,West,3.5,-,N/A,,Clear,260,2013-10-01 07:13:00
2:33 AM,51.8,50.0,94,29.51,7.0,WSW,3.5,-,N/A,,Clear,240,2013-10-01 07:33:00
2:53 AM,50.0,48.2,94,29.51,10.0,SSW,6.9,-,N/A,,Clear,200,2013-10-01 07:53:00
3:13 AM,50.0,48.2,94,29.51,10.0,SSW,5.8,-,N/A,,Clear,210,2013-10-01 08:13:00
3:33 AM,51.8,50.0,94,29.51,10.0,SSW,11.5,-,N/A,,Clear,210,2013-10-01 08:33:00
3:53 AM,51.8,48.2,88,29.52,10.0,SSW,9.2,-,N/A,,Clear,210,2013-10-01 08:53:00
4:13 AM,51.8,48.2,88,29.52,10.0,SW,9.2,-,N/A,,Clear,220,2013-10-01 09:13:00
4:33 AM,51.8,48.2,88,29.53,10.0,SW,11.5,-,N/A,,Clear,230,2013-10-01 09:33:00
4:53 AM,50.0,46.4,87,29.53,10.0,SW,10.4,-,N/A,,Clear,230,2013-10-01 09:53:00
5:13 AM,50.0,46.4,87,29.53,10.0,WSW,11.5,-,N/A,,Clear,240,2013-10-01 10:13:00
5:33 AM,51.8,44.6,76,29.54,10.0,WSW,11.5,-,N/A,,Clear,240,2013-10-01 10:33:00
5:53 AM,50.0,44.6,82,29.54,10.0,WSW,10.4,-,N/A,,Clear,240,2013-10-01 10:53:00
6:13 AM,50.0,42.8,76,29.55,10.0,WSW,11.5,-,N/A,,Clear,240,2013-10-01 11:13:00
6:33 AM,50.0,42.8,76,29.56,10.0,WSW,11.5,-,N/A,,Clear,240,2013-10-01 11:33:00
6:53 AM,46.4,41.0,81,29.57,10.0,SW,9.2,-,N/A,,Clear,220,2013-10-01 11:53:00
7:13 AM,46.4,41.0,81,29.58,10.0,SW,10.4,-,N/A,,Clear,220,2013-10-01 12:13:00
7:33 AM,46.4,41.0,81,29.58,10.0,SW,11.5,-,N/A,,Clear,220,2013-10-01 12:33:00
7:53 AM,46.4,41.0,81,29.59,10.0,SW,9.2,-,N/A,,Clear,220,2013-10-01 12:53:00
8:13 AM,46.4,41.0,81,29.59,10.0,SW,10.4,-,N/A,,Clear,220,2013-10-01 13:13:00
8:33 AM,48.2,42.8,82,29.60,10.0,SW,11.5,-,N/A,,Clear,230,2013-10-01 13:33:00
8:53 AM,51.8,42.8,71,29.61,10.0,SW,12.7,-,N/A,,Clear,230,2013-10-01 13:53:00
9:13 AM,53.6,41.0,62,29.62,10.0,SW,16.1,-,N/A,,Clear,230,2013-10-01 14:13:00
9:33 AM,55.4,41.0,58,29.62,10.0,WSW,17.3,26.5,N/A,,Clear,240,2013-10-01 14:33:00
9:53 AM,55.4,41.0,58,29.64,10.0,WSW,21.9,27.6,N/A,,Clear,250,2013-10-01 14:53:00
10:13 AM,57.2,39.2,51,29.65,10.0,West,20.7,26.5,N/A,,Clear,260,2013-10-01 15:13:00
10:33 AM,59.0,41.0,51,29.65,10.0,West,24.2,29.9,N/A,,Clear,260,2013-10-01 15:33:00
10:53 AM,60.8,41.0,48,29.65,10.0,West,23.0,27.6,N/A,,Clear,260,2013-10-01 15:53:00
11:13 AM,60.8,39.2,45,29.66,10.0,West,28.8,34.5,N/A,,Clear,260,2013-10-01 16:13:00
11:33 AM,62.6,39.2,42,29.65,10.0,West,28.8,39.1,N/A,,Clear,260,2013-10-01 16:33:00
11:53 AM,62.6,39.2,42,29.65,10.0,West,29.9,39.1,N/A,,Clear,260,2013-10-01 16:53:00
12:13 PM,62.6,37.4,39,29.66,10.0,West,26.5,38.0,N/A,,Clear,260,2013-10-01 17:13:00
12:33 PM,64.4,37.4,37,29.65,10.0,West,29.9,43.7,N/A,,Clear,260,2013-10-01 17:33:00
12:53 PM,64.4,35.6,34,29.65,10.0,West,33.4,43.7,N/A,,Clear,260,2013-10-01 17:53:00
1:13 PM,66.2,35.6,32,29.66,10.0,West,32.2,41.4,N/A,,Clear,260,2013-10-01 18:13:00
1:33 PM,66.2,33.8,30,29.66,10.0,West,32.2,43.7,N/A,,Clear,260,2013-10-01 18:33:00
1:53 PM,66.2,33.8,30,29.67,10.0,West,32.2,42.6,N/A,,Clear,270,2013-10-01 18:53:00
2:13 PM,66.2,33.8,30,29.68,10.0,West,31.1,41.4,N/A,,Clear,270,2013-10-01 19:13:00
2:33 PM,66.2,33.8,30,29.69,10.0,West,28.8,40.3,N/A,,Clear,270,2013-10-01 19:33:00
2:53 PM,66.2,32.0,28,29.69,10.0,West,31.1,40.3,N/A,,Scattered Clouds,280,2013-10-01 19:53:00
3:13 PM,66.2,33.8,30,29.69,10.0,West,27.6,38.0,N/A,,Scattered Clouds,280,2013-10-01 20:13:00
3:33 PM,68.0,33.8,28,29.70,10.0,West,31.1,38.0,N/A,,Scattered Clouds,260,2013-10-01 20:33:00
3:53 PM,68.0,33.8,28,29.71,10.0,West,28.8,36.8,N/A,,Mostly Cloudy,270,2013-10-01 20:53:00
4:13 PM,68.0,33.8,28,29.71,10.0,West,27.6,35.7,N/A,,Mostly Cloudy,270,2013-10-01 21:13:00
4:33 PM,68.0,33.8,28,29.72,10.0,West,29.9,36.8,N/A,,Mostly Cloudy,260,2013-10-01 21:33:00
4:53 PM,68.0,33.8,28,29.72,10.0,West,28.8,36.8,N/A,,Mostly Cloudy,260,2013-10-01 21:53:00
5:13 PM,66.2,33.8,30,29.73,10.0,West,25.3,31.1,N/A,,Scattered Clouds,280,2013-10-01 22:13:00
5:33 PM,66.2,30.2,26,29.74,10.0,West,21.9,33.4,N/A,,Scattered Clouds,280,2013-10-01 22:33:00
5:53 PM,66.2,32.0,28,29.74,10.0,West,24.2,29.9,N/A,,Clear,270,2013-10-01 22:53:00
6:13 PM,64.4,32.0,30,29.75,10.0,West,18.4,26.5,N/A,,Clear,270,2013-10-01 23:13:00
6:33 PM,64.4,33.8,32,29.76,10.0,West,15.0,-,N/A,,Clear,270,2013-10-01 23:33:00
6:53 PM,62.6,33.8,34,29.77,10.0,West,12.7,-,N/A,,Clear,270,2013-10-01 23:53:00
7:13 PM,60.8,33.8,36,29.77,10.0,West,11.5,-,N/A,,Clear,260,2013-10-02 00:13:00
7:33 PM,59.0,35.6,42,29.79,10.0,West,11.5,-,N/A,,Clear,260,2013-10-02 00:33:00
7:53 PM,57.2,35.6,44,29.79,10.0,WSW,10.4,-,N/A,,Clear,250,2013-10-02 00:53:00
8:13 PM,55.4,35.6,47,29.80,10.0,WSW,9.2,-,N/A,,Clear,250,2013-10-02 01:13:00
8:33 PM,53.6,35.6,51,29.80,10.0,WSW,9.2,-,N/A,,Clear,250,2013-10-02 01:33:00
8:53 PM,53.6,35.6,51,29.81,10.0,WSW,8.1,-,N/A,,Clear,250,2013-10-02 01:53:00
9:13 PM,53.6,35.6,51,29.81,10.0,WSW,5.8,-,N/A,,Clear,240,2013-10-02 02:13:00
9:33 PM,51.8,35.6,54,29.81,10.0,SW,4.6,-,N/A,,Clear,230,2013-10-02 02:33:00
9:53 PM,50.0,33.8,54,29.82,10.0,SW,6.9,-,N/A,,Clear,230,2013-10-02 02:53:00
10:13 PM,51.8,35.6,54,29.82,10.0,WSW,10.4,-,N/A,,Clear,240,2013-10-02 03:13:00
10:33 PM,51.8,35.6,54,29.83,10.0,WSW,10.4,-,N/A,,Clear,240,2013-10-02 03:33:00
10:53 PM,48.2,35.6,62,29.83,10.0,SW,8.1,-,N/A,,Clear,220,2013-10-02 03:53:00
11:13 PM,46.4,35.6,66,29.84,10.0,SSW,4.6,-,N/A,,Clear,210,2013-10-02 04:13:00
11:33 PM,46.4,35.6,66,29.85,10.0,SSW,8.1,-,N/A,,Clear,200,2013-10-02 04:33:00
11:53 PM,46.4,37.4,71,29.85,10.0,SSW,8.1,-,N/A,,Clear,210,2013-10-02 04:53:00